Weather History for KELY - November, 2012

Change the Weather History Date:

Friday, November 9, 2012

  Actual Average Record
Temperature  
Mean Temperature 28 °F 36 °F  
Max Temperature 49 °F 52 °F 78 °F (1906)
Min Temperature 6 °F 21 °F 2 °F (1945)
Degree Days  
Heating Degree Days 37 29  
Month to date heating degree days 182 242  
Since 1 July heating degree days 854 1170  
Cooling Degree Days 0 0  
Month to date cooling degree days 0 0  
Year to date cooling degree days 314 218  
Moisture  
Dew Point 24 °F    
Average Humidity 73    
Maximum Humidity 100    
Minimum Humidity 46    
Precipitation  
Precipitation 0.47 in 0.03 in 0.47 in (2012)
Month to date precipitation 0.47 0.25  
Year to date precipitation 10.52 8.72  
Snow  
Snow 7.30 in 0.20 in 7.30 in (2012)
Month to date snowfall 7.3 1.5  
Since 1 July snowfall 9.8 4.9  
Since 1 September snowfall 9.8 4.9  
Snow Depth 6.00 in    
Sea Level Pressure  
Sea Level Pressure 29.68 in    
Wind  
Wind Speed 8 mph (NNW)    
Max Wind Speed 36 mph    
Max Gust Speed 48 mph    
Visibility 4 miles    
Events Fog , Rain , Snow    
T = Trace of Precipitation, MM = Missing Value Source: NWS Daily Summary

Daily Weather History Graph

Daily Weather History Graph

Search for Another Location

Airport or City:

Trip Planner

Search our weather history database for the weather conditions in past years. The results will help you decide how hot, cold, wet, or windy it might be!

Date:

Astronomy

Nov. 09, 2012 Rise Set
Actual Time 6:16 AM PST 4:29 PM PST
Civil Twilight 5:48 AM PST 4:57 PM PST
Nautical Twilight 5:16 AM PST 5:29 PM PST
Astronomical Twilight 4:44 AM PST 6:01 PM PST
Moon 1:21 AM PST (11/9) 1:43 PM PST (11/9)
Length of Visible Light 11h 09m
Length of Day
10h 12m
Waning Crescent, 22% of the Moon is Illuminated
Nov 9
Waning Crescent
Nov 13
New
Nov 20
First Quarter
Nov 28
Full
Dec 6
Last Quarter

Hourly Weather History & Observations

Time (PST) Temp. Windchill Dew Point Humidity Pressure Visibility Wind Dir Wind Speed Gust Speed Precip Events Conditions
12:53 AM 48.0 °F - 28.0 °F 46% 29.37 in 10.0 mi SSW 21.9 mph 38.0 mph 0.00 in   Overcast
1:53 AM 45.0 °F 36.6 °F 27.0 °F 49% 29.42 in 10.0 mi SW 21.9 mph 34.5 mph N/A   Mostly Cloudy
2:53 AM 36.0 °F 27.1 °F 28.9 °F 76% 29.48 in 10.0 mi West 13.8 mph 24.2 mph 0.00 in Rain Light Rain
3:33 AM 32.0 °F 24.8 °F 28.4 °F 87% 29.66 in 2.5 mi NE 8.1 mph - 0.00 in Snow Light Snow
3:38 AM 32.0 °F 24.8 °F 28.4 °F 87% 29.66 in 2.0 mi NNE 8.1 mph - 0.00 in Snow Light Snow
3:46 AM 30.2 °F 24.3 °F 28.4 °F 93% 29.66 in 1.8 mi NNW 5.8 mph - 0.01 in Snow Light Snow
3:50 AM 30.2 °F 23.4 °F 28.4 °F 93% 29.66 in 2.0 mi NW 6.9 mph - N/A Snow Light Snow
3:53 AM 30.9 °F 24.3 °F 28.0 °F 89% 29.55 in 2.0 mi WNW 6.9 mph - 0.01 in Snow Light Snow
4:01 AM 30.2 °F 22.6 °F 26.6 °F 86% 29.66 in 3.0 mi West 8.1 mph - 0.00 in Snow Light Snow
4:09 AM 30.2 °F 21.3 °F 26.6 °F 86% 29.66 in 2.5 mi West 10.4 mph - 0.01 in Snow Light Snow
4:18 AM 30.2 °F 20.2 °F 28.4 °F 93% 29.67 in 1.8 mi WNW 12.7 mph - 0.01 in Snow Light Snow
4:28 AM 30.2 °F 21.9 °F 28.4 °F 93% 29.68 in 1.2 mi WNW 9.2 mph - 0.02 in Snow Light Snow
4:53 AM 28.9 °F 21.1 °F 28.0 °F 96% 29.59 in 1.0 mi WNW 8.1 mph - 0.03 in Snow Light Snow
5:02 AM 28.4 °F 20.4 °F 28.4 °F 100% 29.68 in 0.8 mi WNW 8.1 mph - 0.02 in Snow Light Snow
5:23 AM 28.4 °F 22.2 °F 28.4 °F 100% 29.69 in 0.8 mi North 5.8 mph - 0.06 in Snow Light Snow
5:53 AM 28.0 °F 16.5 °F 27.0 °F 96% 29.61 in 0.8 mi NNE 15.0 mph - 0.13 in Snow Light Snow
6:13 AM 28.4 °F 20.4 °F 26.6 °F 93% 29.69 in 1.0 mi North 8.1 mph - 0.03 in Snow Light Snow
6:32 AM 28.4 °F 20.4 °F 26.6 °F 93% 29.69 in 1.8 mi North 8.1 mph - 0.04 in Snow Light Snow
6:35 AM 28.4 °F 21.2 °F 26.6 °F 93% 29.70 in 2.0 mi North 6.9 mph - N/A Snow Light Snow
6:46 AM 28.4 °F 20.4 °F 26.6 °F 93% 29.70 in 1.8 mi North 8.1 mph - 0.04 in Snow Light Snow
6:53 AM 28.0 °F 20.0 °F 27.0 °F 96% 29.62 in 1.2 mi North 8.1 mph - 0.05 in Snow Light Snow
7:37 AM 28.4 °F 22.2 °F 26.6 °F 93% 29.71 in 1.5 mi NW 5.8 mph - 0.02 in Snow Light Snow
7:48 AM 28.4 °F 22.2 °F 26.6 °F 93% 29.71 in 1.8 mi NW 5.8 mph - 0.02 in Snow Light Snow
7:53 AM 28.0 °F 21.7 °F 26.1 °F 92% 29.62 in 1.2 mi Variable 5.8 mph - 0.02 in Snow Light Snow
8:00 AM 28.4 °F 23.3 °F 26.6 °F 93% 29.71 in 0.8 mi NW 4.6 mph - N/A Snow Light Snow
8:09 AM 28.4 °F 22.2 °F 26.6 °F 93% 29.71 in 0.8 mi NW 5.8 mph - 0.02 in Snow Light Snow
8:33 AM 26.6 °F 16.8 °F 24.8 °F 93% 29.72 in 0.8 mi NW 10.4 mph - 0.03 in Snow Light Snow
8:53 AM 27.0 °F 18.0 °F 24.1 °F 89% 29.65 in 0.5 mi North 9.2 mph - 0.07 in Fog , Snow Snow
9:46 AM 26.6 °F 15.7 °F 24.8 °F 93% 29.72 in 0.2 mi NNE 12.7 mph - 0.06 in Fog , Snow Heavy Snow
9:53 AM 26.1 °F 15.6 °F 24.1 °F 92% 29.65 in 0.2 mi NNE 11.5 mph - 0.07 in Fog , Snow Heavy Snow
10:08 AM 26.6 °F 15.7 °F 24.8 °F 93% 29.72 in 0.5 mi North 12.7 mph - 0.02 in Fog , Snow Snow
10:53 AM 27.0 °F 19.5 °F 25.0 °F 92% 29.64 in 0.5 mi NNW 6.9 mph - 0.07 in Fog , Snow Snow
11:07 AM 28.4 °F 23.3 °F 24.8 °F 86% 29.70 in 1.5 mi North 4.6 mph - 0.00 in Snow Light Snow
11:13 AM 28.4 °F 19.7 °F 23.0 °F 80% 29.71 in 2.0 mi NNW 9.2 mph - 0.00 in Snow Light Snow
11:30 AM 26.6 °F 16.8 °F 23.0 °F 86% 29.70 in 2.0 mi NW 10.4 mph - 0.00 in Snow Light Snow
11:53 AM 27.0 °F 19.5 °F 24.1 °F 89% 29.63 in 4.0 mi NNW 6.9 mph - 0.01 in Snow Light Snow
12:04 PM 26.6 °F 19.1 °F 24.8 °F 93% 29.69 in 2.5 mi NNW 6.9 mph - 0.00 in Snow Light Snow
12:12 PM 28.4 °F 24.6 °F 23.0 °F 80% 29.69 in 4.0 mi North 3.5 mph - 0.00 in Snow Light Snow
12:20 PM 28.4 °F 20.4 °F 23.0 °F 80% 29.69 in 2.5 mi North 8.1 mph - 0.00 in Snow Light Snow
12:53 PM 27.0 °F 20.5 °F 23.0 °F 85% 29.63 in 2.0 mi NNE 5.8 mph - 0.01 in Snow Light Snow
1:13 PM 26.6 °F 17.5 °F 23.0 °F 86% 29.68 in 1.8 mi North 9.2 mph - 0.00 in Snow Light Snow
1:28 PM 26.6 °F 19.1 °F 23.0 °F 86% 29.68 in 2.5 mi NE 6.9 mph - 0.00 in Snow Light Snow
1:35 PM 26.6 °F 19.1 °F 21.2 °F 80% 29.68 in 3.0 mi NE 6.9 mph - 0.00 in Snow Light Snow
1:53 PM 27.0 °F - 21.0 °F 78% 29.64 in 5.0 mi Calm Calm - 0.00 in Snow Light Snow
2:53 PM 26.1 °F 19.4 °F 23.0 °F 88% 29.69 in 3.0 mi NE 5.8 mph - 0.00 in Snow Light Snow
3:53 PM 24.1 °F 17.0 °F 21.9 °F 91% 29.70 in 10.0 mi WNW 5.8 mph - 0.00 in   Overcast
4:53 PM 21.9 °F 17.2 °F 21.0 °F 96% 29.74 in 10.0 mi NNE 3.5 mph - N/A   Overcast
5:53 PM 23.0 °F - 21.0 °F 92% 29.74 in 10.0 mi Calm Calm - 0.00 in   Overcast
6:53 PM 19.9 °F 12.1 °F 18.0 °F 92% 29.77 in 10.0 mi SE 5.8 mph - N/A   Scattered Clouds
7:53 PM 10.9 °F 1.4 °F 9.0 °F 92% 29.81 in 10.0 mi South 5.8 mph - N/A   Clear
8:53 PM 12.9 °F 0.7 °F 10.0 °F 88% 29.81 in 10.0 mi South 9.2 mph - N/A   Clear
9:53 PM 10.0 °F -0.9 °F 8.1 °F 92% 29.84 in 10.0 mi South 6.9 mph - N/A   Clear
10:53 PM 10.0 °F 0.4 °F 8.1 °F 92% 29.82 in 10.0 mi South 5.8 mph - N/A   Overcast
11:53 PM 10.0 °F 1.8 °F 8.1 °F 92% 29.81 in 10.0 mi SE 4.6 mph - N/A   Partly Cloudy